GFSMW_sfc_rhum_180.txt.gz
RH
38 56 73 86 89 76 81 86 88 87 80 76 78 77 88 85 85 81 84 87 82 81 80 80 82 76 70 73 69 75 75 79 80 81 80 79 77 76 75 73 73 72 71
37 46 80 90 92 84 83 88 84 83 77 70 69 67 82 84 74 77 84 82 79 80 80 80 77 72 74 74 72 72 80 80 82 74 78 80 80 74 76 76 71 77 73
34 50 88 93 91 88 84 86 83 81 75 69 66 77 78 79 77 78 81 84 77 78 80 79 76 74 73 72 70 71 69 79 82 81 66 65 51 78 78 78 76 76 75
36 37 80 91 93 90 82 83 82 80 72 67 64 75 69 76 67 73 81 84 80 79 81 76 75 76 77 73 69 67 73 73 77 81 77 82 80 74 72 77 79 76 75
44 46 77 84 86 84 85 84 80 76 68 63 67 80 71 66 72 76 78 82 85 80 77 78 76 78 78 77 72 72 73 75 76 77 84 87 89 88 87 84 84 78 77
51 51 52 76 83 83 84 82 81 76 68 64 73 79 75 81 73 72 75 78 82 84 82 77 78 81 79 75 76 77 77 80 81 81 84 84 85 88 93 93 87 85 80
63 62 66 78 87 91 88 84 81 79 70 72 78 80 80 82 74 72 73 77 80 82 79 77 80 82 80 80 78 78 78 79 83 88 91 90 92 90 91 93 89 88 79
73 76 76 76 85 89 90 86 82 80 73 73 80 79 80 73 69 68 70 70 74 76 76 79 78 79 78 80 81 80 80 81 83 85 87 91 94 92 92 93 93 89 79
79 77 74 78 75 89 89 88 85 81 76 74 80 84 82 78 80 80 82 76 74 74 76 75 78 80 80 80 80 80 81 82 85 89 89 91 93 92 93 84 93 93 90
83 78 79 84 85 90 88 86 84 81 78 80 82 85 84 84 85 87 88 82 74 72 75 76 78 78 81 83 83 82 82 82 87 86 88 89 92 92 92 86 94 95 90
90 86 87 89 93 90 86 87 82 82 84 84 84 89 90 91 88 89 88 81 74 76 76 74 79 81 84 85 85 84 84 83 82 82 88 88 87 90 92 92 93 96 91
86 82 88 94 94 94 91 85 85 87 85 84 88 93 94 94 94 94 87 81 77 74 76 77 80 79 84 86 86 82 83 82 83 80 86 87 76 91 92 94 95 91 93
78 86 86 92 98 95 94 93 90 89 86 87 91 94 96 96 96 95 91 80 79 80 78 80 82 83 86 85 85 84 81 80 80 81 84 88 86 89 92 93 96 93 86
58 86 90 92 94 94 99 99 94 90 88 89 94 98 98 96 96 91 82 79 76 78 80 80 83 85 84 84 84 80 79 81 81 80 82 87 87 92 92 90 96 93 90
57 80 86 89 90 94 98 98 96 97 97 100 99 100 96 95 94 94 90 80 79 78 77 81 82 82 82 83 84 78 77 81 84 83 77 82 81 77 80 85 94 90 87
66 62 76 82 85 89 94 96 98 99 98 100 100 100 98 100 93 90 86 82 84 86 88 85 85 86 72 79 78 76 79 76 79 86 83 78 73 67 66 70 73 76 88
76 76 71 77 77 83 90 94 95 93 93 99 100 100 100 99 94 85 83 89 92 91 92 92 90 90 89 79 78 75 85 90 91 88 81 70 69 75 72 74 73 70 71
83 84 86 78 81 85 88 88 86 86 90 92 94 97 96 95 92 90 90 91 93 94 94 94 93 92 92 80 77 77 92 94 94 94 94 93 94 90 81 85 92 94 95
92 95 92 87 92 88 88 86 86 83 86 90 90 85 89 91 89 89 92 95 95 96 96 95 96 96 94 84 80 84 92 94 95 95 94 94 94 74 79 95 97 99 97
96 98 95 92 94 92 85 90 88 84 87 87 85 81 80 82 86 91 94 95 94 96 96 97 96 93 94 84 85 81 84 92 89 92 94 84 91 73 85 96 96 96 95
100 98 98 98 95 92 88 93 93 92 87 85 83 81 79 82 86 92 95 96 96 97 97 97 98 98 93 90 82 80 88 89 90 93 97 95 77 75 81 86 94 90 97
86 100 100 100 100 98 95 94 93 92 89 88 89 91 91 89 93 95 98 95 96 97 97 96 96 95 95 86 84 81 80 79 85 93 95 94 74 72 76 92 83 82 96
93 99 100 100 100 97 96 96 98 92 91 92 94 97 98 98 96 95 97 97 97 96 96 95 95 96 96 92 78 76 76 72 84 91 87 78 70 71 78 80 76 95 95
97 98 99 99 100 99 96 96 96 93 93 96 99 99 98 98 97 96 97 96 97 97 96 96 96 97 96 97 90 90 86 86 91 84 84 94 95 93 96 93 94 96 95
92 94 98 99 99 96 98 97 95 93 96 97 98 98 96 95 96 96 96 96 95 92 95 95 95 96 96 94 91 92 96 96 93 94 94 94 93 94 93 91 91 90 87
88 88 92 97 96 94 96 95 90 90 95 98 97 96 95 96 96 96 98 99 97 98 98 96 93 92 74 81 85 83 89 90 88 88 95 98 97 96 95 92 90 88 89

GFSMW_sfc_rhum_186.txt.gz
RH
17 17 20 23 25 31 38 43 54 81 83 86 94 92 91 88 87 81 66 65 58 55 50 42 51 46 40 40 43 45 51 47 43 45 46 46 47 46 43 43 45 49 47
18 18 20 22 27 29 37 43 50 71 82 77 81 81 82 85 83 80 74 73 66 63 55 50 49 46 39 47 48 51 48 47 45 39 41 49 48 44 44 43 45 52 44
32 31 28 27 28 31 37 40 46 62 82 79 79 81 84 86 85 79 77 74 69 69 64 62 58 49 43 45 50 54 53 47 48 44 35 39 34 44 44 50 44 54 50
32 32 33 35 35 32 34 40 42 48 79 82 82 86 86 87 79 78 74 74 74 68 70 67 60 58 44 46 49 54 55 47 49 52 40 42 38 36 46 44 50 54 54
33 32 32 34 33 36 37 39 45 47 74 82 81 80 86 81 77 75 79 77 78 74 69 69 68 65 48 50 50 55 53 56 43 38 41 41 37 39 34 44 49 49 59
31 31 32 34 34 36 43 46 46 48 74 82 82 81 84 85 81 77 76 82 79 76 70 72 69 68 66 67 58 64 64 50 44 36 38 35 36 33 35 38 47 46 66
30 34 34 35 40 43 45 46 47 49 65 83 83 82 78 83 82 80 83 82 83 82 79 74 74 68 70 66 66 68 67 55 45 47 40 38 38 30 34 38 41 43 60
26 30 33 35 38 44 45 49 50 53 51 82 82 81 80 81 81 80 81 81 78 77 74 75 70 69 67 65 62 69 64 53 54 54 49 45 47 41 39 40 45 46 49
24 25 30 32 35 41 46 52 56 58 58 76 84 84 85 84 83 80 83 86 81 80 76 83 85 74 69 67 64 60 61 62 57 57 57 50 52 52 45 43 40 44 51
23 26 28 32 32 39 46 54 55 65 76 75 86 85 85 85 82 83 86 87 89 87 86 84 79 74 73 69 64 63 66 65 65 57 56 54 53 52 50 49 48 48 45
25 27 29 30 30 34 61 72 68 68 88 93 91 89 88 87 86 87 89 91 92 89 88 88 88 85 84 78 74 71 67 62 60 58 61 58 55 54 55 52 48 47 49
27 32 36 39 35 43 58 84 90 87 92 91 91 91 92 90 90 92 93 91 91 90 90 89 91 92 93 90 80 70 67 67 58 60 58 59 49 60 62 58 59 60 56
32 34 43 46 56 56 63 70 84 96 98 94 97 98 98 95 95 95 94 92 92 92 92 91 95 96 97 93 79 72 71 65 57 55 59 61 59 62 66 69 70 63 54
33 33 43 50 57 59 65 100 89 98 99 99 98 98 98 96 96 95 94 93 91 94 93 92 92 93 92 89 76 70 67 60 54 61 65 63 62 69 69 70 80 70 65
33 32 42 49 51 59 56 59 86 100 100 100 99 100 97 95 95 95 94 94 92 91 89 90 86 87 86 80 73 65 58 55 58 64 58 65 67 74 76 64 74 73 64
38 43 49 43 49 58 59 59 71 96 98 100 100 99 98 100 98 97 96 96 94 94 94 92 94 94 75 80 74 64 59 55 55 58 54 66 78 82 78 82 74 65 61
44 48 47 47 51 56 64 67 68 89 97 99 100 100 100 100 100 96 95 98 100 97 99 98 91 95 87 82 77 70 68 76 76 56 53 50 49 66 61 70 68 63 65
54 64 65 64 55 54 57 67 70 91 94 95 97 100 100 100 100 100 100 100 100 100 99 100 100 99 100 83 75 76 99 100 100 100 99 85 83 71 50 42 52 66 70
72 80 77 67 58 56 62 72 74 89 93 93 95 95 100 100 100 100 100 100 100 100 100 100 100 100 96 80 79 81 97 100 100 100 100 100 100 65 57 90 86 93 94
79 85 75 65 59 61 67 85 82 80 94 90 90 91 94 95 98 100 100 100 100 100 100 100 100 95 100 82 81 74 66 84 84 96 100 82 95 71 73 86 87 88 92
95 84 79 73 74 80 86 95 100 100 100 93 90 91 92 94 96 99 99 99 99 99 100 100 100 100 94 91 79 73 72 82 78 81 88 87 78 76 77 76 95 92 94
69 99 99 100 99 100 100 100 100 100 100 100 100 100 97 95 98 98 100 100 99 100 97 95 92 89 96 88 85 74 71 72 76 93 83 93 74 76 76 82 78 81 81
52 78 99 100 100 100 100 100 100 100 100 100 100 100 100 100 100 99 99 99 100 96 94 92 95 97 95 97 96 75 75 74 67 80 89 80 74 76 79 76 74 75 83
52 64 83 98 100 100 100 100 100 100 100 100 100 100 100 100 100 98 97 98 98 98 95 94 97 98 98 98 98 90 84 80 83 82 82 81 79 76 79 81 81 78 80
58 74 77 94 99 99 100 100 100 100 100 100 100 100 99 100 99 98 97 98 99 92 94 96 96 100 100 100 94 91 94 90 86 87 84 82 78 78 75 73 74 72 71
69 75 85 87 93 95 93 95 95 98 100 100 99 99 98 98 97 98 100 98 99 99 95 93 96 98 96 97 97 92 88 86 87 83 82 83 84 78 74 73 72 70 70

GFSMW_sfc_rhum_192.txt.gz
RH
26 26 30 32 35 40 41 42 44 73 82 84 90 95 96 94 95 95 91 88 84 77 77 73 69 66 58 58 60 63 65 62 61 62 73 67 68 69 70 66 62 64 62
27 27 29 34 43 43 49 47 44 47 59 84 82 86 88 90 90 93 92 89 85 82 78 69 61 60 64 65 59 57 61 61 59 67 66 79 75 69 65 67 63 71 64
28 27 29 36 42 44 51 46 49 49 50 56 84 87 89 93 97 98 97 90 84 83 78 74 66 71 69 59 61 60 58 62 62 57 75 72 77 72 71 66 60 67 67
21 24 28 32 38 44 50 50 49 48 45 54 65 88 93 96 92 91 92 92 86 84 80 78 70 74 75 60 61 60 56 57 66 64 62 63 63 71 79 69 70 67 63
22 22 23 24 26 39 46 55 51 46 49 55 64 79 82 93 85 88 93 93 91 84 82 80 76 79 76 66 69 73 63 60 67 65 61 71 60 62 69 75 77 68 66
20 20 20 21 21 28 47 52 48 44 52 55 60 72 80 84 85 92 93 94 93 90 86 83 82 84 78 76 72 73 69 63 62 67 63 64 62 69 63 67 74 76 72
23 21 18 18 25 34 40 42 38 39 48 54 56 60 70 81 82 81 87 94 94 94 91 88 88 89 80 77 75 75 73 74 73 66 69 69 62 63 60 63 73 74 85
19 17 17 22 24 34 42 48 45 43 41 55 59 60 61 73 80 78 77 84 91 90 88 89 88 89 84 79 79 82 77 75 77 76 75 74 74 77 61 64 76 92 89
16 15 16 24 30 35 38 54 49 46 50 53 60 65 69 72 77 78 77 75 89 89 90 90 90 87 87 82 82 83 82 78 77 78 82 81 84 81 77 62 69 76 90
15 16 18 28 30 33 39 43 50 46 51 58 60 62 68 76 78 82 81 78 88 90 92 93 92 90 88 84 84 88 83 82 88 86 86 88 86 82 86 85 64 63 75
17 19 24 26 29 30 38 44 48 50 54 57 63 68 75 80 81 87 84 80 90 92 94 94 93 93 89 89 88 86 85 81 86 85 82 82 76 86 86 85 75 66 71
16 19 24 28 30 41 39 39 50 51 51 50 64 72 76 82 89 89 86 86 96 95 94 95 94 90 90 91 90 90 87 85 85 84 83 85 77 87 86 88 78 78 79
18 20 23 25 30 32 36 43 49 54 55 56 69 76 80 89 93 92 91 99 99 98 97 94 93 91 91 94 91 88 85 85 85 86 84 91 88 90 91 94 95 93 84
21 20 22 27 30 30 39 68 54 58 60 64 75 83 88 92 96 96 99 99 98 98 97 94 93 91 92 90 92 91 93 94 93 92 91 93 90 88 90 92 94 94 88
20 23 29 30 27 34 49 56 60 65 70 72 92 96 94 95 98 99 99 98 97 94 93 95 94 93 91 90 92 93 96 97 98 97 94 91 90 87 90 91 93 93 86
19 26 26 24 33 47 58 62 66 69 71 77 100 99 97 99 99 99 99 99 99 98 96 95 94 95 89 92 92 91 97 98 98 98 93 92 91 90 88 89 85 87 87
23 23 27 34 44 56 62 69 70 71 70 76 100 100 100 100 100 99 99 99 100 99 99 100 99 100 99 97 94 96 98 99 100 98 89 84 83 89 86 81 75 84 88
29 34 34 36 48 58 63 70 75 79 78 79 86 99 100 100 100 100 100 100 100 100 100 100 100 99 100 98 100 99 100 100 100 96 94 93 94 89 84 80 85 95 96
37 38 32 38 54 60 65 80 82 79 82 87 87 92 100 100 100 100 100 100 100 100 100 99 99 99 99 100 100 99 99 100 100 100 100 98 96 87 83 89 95 97 96
40 35 35 54 58 68 72 90 91 90 94 96 94 90 97 98 100 100 100 100 100 100 99 100 100 99 99 100 100 100 98 98 99 99 97 94 93 80 83 90 92 96 97
46 36 59 70 75 77 86 96 100 98 98 97 96 96 96 99 100 100 100 100 100 99 99 99 99 99 98 100 100 99 93 93 94 95 94 90 82 83 81 82 88 90 91
29 54 81 91 88 86 99 98 98 100 100 100 100 100 100 100 100 99 100 100 99 99 99 98 99 99 99 99 99 92 90 88 90 94 91 88 82 81 84 94 85 81 88
27 41 74 100 97 91 99 99 99 99 99 100 100 100 100 100 100 100 99 99 99 98 99 98 98 98 99 99 98 89 86 84 87 90 88 80 78 82 90 88 86 90 93
37 60 63 74 95 99 98 100 100 100 100 100 100 100 100 100 100 100 100 99 99 99 98 98 97 98 98 98 94 90 88 91 92 90 86 84 86 90 93 91 91 96 95
56 72 61 73 90 95 99 100 100 100 100 99 100 100 100 100 100 100 100 100 100 99 98 98 97 97 98 97 88 88 94 95 93 91 90 93 91 95 91 91 90 95 94
71 66 63 74 82 94 97 97 99 100 100 100 100 100 100 100 99 99 99 100 100 98 98 98 96 94 89 86 86 86 90 90 92 95 94 94 92 92 90 89 87 94 90

GFSMW_sfc_rhum_198.txt.gz
RH
45 48 47 54 62 64 53 55 62 75 92 98 95 98 98 99 99 99 98 96 96 95 94 94 90 82 85 79 71 66 70 73 69 78 92 91 91 95 90 87 86 81 84
43 43 47 57 61 64 68 67 63 66 77 84 90 98 99 98 99 98 98 98 98 96 97 96 93 89 82 80 78 69 74 64 69 72 78 85 78 82 89 85 84 86 82
40 40 43 55 60 62 60 62 66 67 76 79 83 87 93 95 95 96 98 98 98 97 97 97 96 93 90 86 76 71 68 68 74 63 78 90 91 93 94 89 83 83 85
42 40 40 51 54 68 62 53 49 48 71 82 84 80 88 86 94 95 96 96 95 97 95 96 96 95 92 86 82 75 67 68 82 69 62 77 76 82 97 86 85 78 77
29 29 33 35 50 61 63 62 54 53 56 57 70 88 88 92 91 92 88 91 93 94 94 94 95 98 97 92 90 86 82 73 73 78 70 74 79 83 79 90 91 79 76
29 27 31 31 46 56 58 62 56 56 56 58 60 68 76 85 92 93 95 94 93 94 95 95 94 93 93 97 95 93 88 83 80 76 65 67 70 74 71 78 83 80 79
24 25 31 38 45 49 51 61 56 50 54 59 66 73 78 82 88 91 91 81 87 95 89 93 94 92 90 90 94 94 94 93 93 88 78 72 62 50 57 64 78 80 82
22 27 39 42 40 39 49 58 60 58 60 64 62 71 81 88 78 79 80 73 78 86 90 92 86 84 85 87 89 94 93 90 91 91 87 80 73 63 54 68 78 91 88
22 33 40 36 37 42 56 52 48 49 54 63 71 72 76 74 69 67 65 75 88 89 88 84 85 83 81 80 84 88 92 94 91 91 92 87 83 82 73 69 66 74 96
24 34 35 35 42 50 54 51 50 52 59 65 69 64 70 73 72 74 79 85 88 86 86 84 82 82 82 82 83 85 84 92 92 89 91 89 88 84 82 75 66 66 77
29 34 34 39 45 53 48 50 56 61 67 71 76 81 83 77 77 82 87 91 85 85 84 81 80 82 83 85 85 82 82 86 93 88 89 88 86 87 86 81 69 73 73
32 31 34 43 47 43 44 53 69 74 77 78 80 85 86 78 82 83 85 87 88 85 84 84 87 89 83 82 83 84 80 84 93 90 90 88 87 90 87 88 84 81 80
28 28 41 40 41 43 53 59 66 72 78 80 84 90 87 78 86 87 86 90 89 85 86 88 92 87 86 89 90 89 87 81 86 89 90 89 92 94 93 89 91 92 86
25 34 36 39 41 47 54 71 63 70 80 86 91 89 85 86 89 87 90 92 87 89 91 92 90 92 91 93 94 93 94 92 90 91 89 89 91 92 92 92 92 91 92
33 36 40 45 45 48 50 48 56 77 88 87 86 87 86 84 87 89 93 88 91 92 92 94 92 94 96 98 99 99 99 99 99 96 94 93 92 91 90 91 92 93 94
39 42 45 43 42 42 48 48 76 88 89 90 89 84 88 89 94 94 93 95 96 95 98 98 98 99 97 99 100 98 98 98 98 98 97 97 96 96 95 94 90 89 93
41 43 42 43 45 50 61 86 84 82 84 87 90 92 94 100 98 95 97 98 100 99 99 100 100 100 100 99 98 97 97 98 98 97 98 97 96 95 97 98 96 93 88
38 39 43 47 52 77 87 88 87 86 84 82 82 88 96 100 100 100 100 100 100 100 100 100 100 100 100 98 98 98 100 100 100 100 99 98 98 98 97 98 98 97 96
41 48 47 52 78 88 91 92 92 89 84 84 84 91 96 99 100 100 100 100 100 100 100 100 100 100 100 98 98 98 99 100 99 100 100 100 100 98 94 100 100 100 100
47 42 56 80 87 91 93 96 94 89 88 89 95 96 96 97 99 100 100 100 100 100 100 99 100 100 99 100 100 99 98 99 98 99 100 98 99 96 95 99 98 98 99
47 56 80 85 90 93 95 96 96 93 94 96 96 96 96 97 99 100 100 99 100 99 99 99 99 99 100 100 100 100 99 98 98 98 99 100 98 96 94 92 97 95 97
45 82 84 88 93 94 97 96 94 96 99 98 98 97 97 98 100 100 100 100 99 99 98 98 99 99 99 100 100 100 99 97 95 98 99 99 98 97 96 96 96 95 96
78 85 93 98 98 95 93 97 97 98 98 98 98 92 97 99 100 100 99 100 99 99 98 97 98 99 99 99 100 100 99 98 98 99 99 99 100 98 98 97 96 95 94
81 88 90 92 97 98 90 96 99 99 98 98 98 98 98 99 100 100 100 100 99 99 98 98 98 98 98 99 98 98 98 98 98 98 98 98 98 97 97 96 92 93 92
87 90 90 92 94 95 94 96 97 99 98 98 98 98 99 99 99 99 100 99 100 98 97 98 97 97 98 99 97 96 97 98 97 97 96 96 96 96 96 96 95 93 89
89 91 91 92 93 94 90 90 93 100 99 98 98 99 99 99 99 99 99 99 99 99 100 99 96 99 99 100 100 98 97 95 90 92 95 97 97 97 96 96 98 96 96